K3ZED-2 Weather Reports


Display with metric or nautical units.
time (UTC)temp
F
wind
direction
speed
MPH
gust
MPH
rain 1hr
in
rain 24hr
in
rain mn
in
humidity
%
barometer
mb
20260508054554 48 320 2.0 10.0 0.00 0.13 0.00 86 1011.5
20260508053055 48 289 0.0 0.0 0.00 0.13 0.00 85 1011.2
20260508051552 48 278 0.0 0.0 0.00 0.13 0.00 84 1011.1
20260508050047 49 243 0.0 5.0 0.00 0.13 0.00 83 1010.9
20260508044543 50 243 0.0 0.0 0.00 0.23 0.00 82 1010.8
20260508043040 51 228 0.0 0.0 0.00 0.23 0.00 81 1010.8
20260508041538 51 232 0.0 0.0 0.00 0.23 0.00 80 1010.7
20260508040045 51 248 0.0 3.0 0.00 0.23 0.00 79 1010.5
20260508034536 51 244 0.0 5.0 0.00 0.23 0.23 79 1010.5
20260508033035 51 241 0.0 5.0 0.00 0.23 0.23 79 1010.5
20260508031536 51 251 0.0 7.0 0.00 0.23 0.23 80 1010.6
20260508030035 51 230 0.0 0.0 0.00 0.23 0.23 80 1010.5
20260508024545 51 230 0.0 2.0 0.00 0.23 0.23 80 1010.5
20260508023033 52 225 0.0 2.0 0.00 0.23 0.23 79 1010.5
20260508021534 52 224 0.0 4.0 0.00 0.23 0.23 79 1010.5
20260508020033 51 222 0.0 7.0 0.00 0.23 0.23 79 1010.4
20260508014540 49 230 0.0 7.0 0.00 0.24 0.23 81 1010.3
20260508013030 48 230 0.0 0.0 0.00 0.24 0.23 81 1010.1
20260508011529 49 25 0.0 0.0 0.00 0.24 0.23 79 1009.9
20260508010034 50 25 0.0 0.0 0.00 0.24 0.23 76 1009.5
20260508004527 51 25 0.0 0.0 0.00 0.24 0.23 73 1009.4
20260508003028 53 25 0.0 0.0 0.00 0.24 0.23 70 1009.3
20260508001528 55 25 0.0 0.0 0.00 0.24 0.23 67 1009.2
20260508000027 57 31 0.0 0.0 0.00 0.24 0.23 61 1009.1
20260507234527 59 31 0.0 0.0 0.00 0.24 0.23 57 1008.9
20260507233037 60 31 0.0 0.0 0.00 0.24 0.23 51 1008.8
20260507231534 61 31 0.0 0.0 0.00 0.24 0.23 47 1008.7
20260507230025 62 47 0.0 3.0 0.00 0.24 0.23 46 1008.9
20260507224530 64 356 0.0 0.0 0.00 0.24 0.23 44 1008.6
20260507223023 63 314 0.0 0.0 0.00 0.24 0.23 43 1008.7
20260507221533 63 74 0.0 1.0 0.00 0.24 0.23 43 1008.7
20260507220022 63 342 0.0 6.0 0.00 0.24 0.23 50 1008.7
20260507214521 64 55 2.0 11.0 0.00 0.24 0.23 45 1008.8
20260507213023 64 17 1.0 9.0 0.00 0.24 0.23 43 1008.9
20260507211524 64 43 0.0 9.0 0.00 0.24 0.23 46 1008.9
20260507210018 64 70 0.0 5.0 0.00 0.24 0.23 45 1008.8
20260507204517 64 316 0.0 4.0 0.00 0.24 0.23 45 1008.7
20260507203015 63 285 0.0 10.0 0.00 0.24 0.23 45 1008.6
20260507201514 63 55 0.0 3.0 0.00 0.24 0.23 48 1008.8
20260507200013 63 272 4.0 12.0 0.00 0.24 0.23 46 1008.9
20260507194512 62 295 8.0 13.0 0.00 0.24 0.23 48 1009.0
20260507193009 62 335 0.0 8.0 0.00 0.24 0.23 50 1009.3
20260507191507 62 326 2.0 11.0 0.00 0.24 0.23 48 1009.4
20260507190007 62 314 1.0 8.0 0.00 0.24 0.23 51 1009.4
20260507184503 61 256 2.0 13.0 0.00 0.24 0.23 44 1009.8
20260507183007 61 344 4.0 13.0 0.00 0.24 0.23 48 1010.0
20260507181502 61 279 0.0 14.0 0.00 0.24 0.23 51 1010.0
20260507174559 61 70 0.0 11.0 0.00 0.24 0.23 54 1010.1
20260507173104 61 307 0.0 11.0 0.00 0.24 0.23 53 1010.3
20260507171555 60 297 0.0 9.0 0.00 0.24 0.23 52 1010.6
20260507164559 59 303 0.0 11.0 0.00 0.24 0.23 56 1011.0
20260507163054 59 297 1.0 12.0 0.00 0.24 0.23 58 1011.2
20260507161548 59 6 1.0 8.0 0.00 0.24 0.23 59 1011.5
20260507160046 58 300 0.0 8.0 0.00 0.24 0.23 60 1011.6
20260507154551 57 57 1.0 11.0 0.00 0.28 0.23 59 1011.6
20260507153042 56 356 0.0 2.0 0.00 0.28 0.23 64 1011.9
20260507151541 55 69 0.0 5.0 0.00 0.28 0.23 67 1012.0
20260507150040 55 336 2.0 10.0 0.00 0.28 0.23 65 1012.3
20260507144539 54 356 0.0 11.0 0.00 0.34 0.23 69 1012.5
20260507143039 53 338 0.0 10.0 0.00 0.34 0.23 68 1012.8
20260507141539 53 42 0.0 10.0 0.00 0.34 0.23 73 1012.8
20260507140037 52 37 3.0 11.0 0.00 0.34 0.23 72 1012.9
20260507134538 51 317 1.0 9.0 0.00 0.35 0.23 73 1012.9
20260507133043 50 282 0.0 4.0 0.00 0.35 0.23 78 1013.0
20260507131541 50 346 0.0 8.0 0.00 0.35 0.23 82 1012.8
20260507130035 50 12 0.0 4.0 0.00 0.35 0.23 88 1012.7
20260507124532 50 324 0.0 3.0 0.00 0.35 0.23 89 1012.7
20260507123029 49 294 0.0 4.0 0.00 0.35 0.23 90 1012.8
20260507121527 49 299 0.0 0.0 0.00 0.35 0.23 91 1012.8
20260507120027 50 312 0.0 0.0 0.00 0.35 0.23 93 1012.6
20260507114523 50 293 0.0 0.0 0.00 0.35 0.23 95 1012.5
20260507113023 50 295 0.0 0.0 0.00 0.35 0.23 96 1012.2
20260507111520 50 293 0.0 0.0 0.00 0.35 0.23 96 1012.1
20260507110020 50 296 0.0 0.0 0.00 0.35 0.23 96 1012.1
20260507104520 50 309 0.0 0.0 0.00 0.35 0.23 96 1012.0
20260507103017 50 316 0.0 0.0 0.00 0.35 0.23 96 1011.8
20260507101517 50 316 0.0 0.0 0.00 0.35 0.23 96 1011.5
20260507100014 49 316 0.0 0.0 0.00 0.35 0.23 95 1011.5
20260507094513 49 316 0.0 0.0 0.00 0.35 0.23 95 1011.3
20260507093015 49 316 0.0 4.0 0.00 0.35 0.23 95 1011.3
20260507091511 49 317 0.0 0.0 0.00 0.35 0.23 95 1011.0
20260507090020 49 325 0.0 0.0 0.00 0.35 0.23 95 1011.2
20260507084509 49 325 0.0 0.0 0.00 0.35 0.23 95 1010.5
20260507083010 49 322 0.0 0.0 0.02 0.35 0.23 95 1010.6
20260507081508 49 305 0.0 0.0 0.03 0.35 0.23 95 1010.7
20260507080007 49 324 0.0 0.0 0.04 0.35 0.23 94 1010.4
20260507074507 49 328 0.0 0.0 0.04 0.35 0.23 94 1010.8
20260507073006 49 324 0.0 0.0 0.02 0.33 0.21 93 1010.9
20260507071504 49 27 0.0 4.0 0.03 0.32 0.20 92 1010.8
20260507070004 49 36 0.0 6.0 0.03 0.31 0.19 92 1010.9
20260507064502 50 327 0.0 9.0 0.04 0.31 0.19 92 1011.5
20260507063106 50 15 0.0 11.0 0.04 0.31 0.19 91 1011.1
20260507061555 51 338 5.0 13.0 0.05 0.28 0.17 92 1011.2